Location: Cluj-Napoca
(46.7712°N, 23.6236°E)
Time: 15:50:04
(UTC+02:00)

First-Move - Pass Details

Date: 05 December 2021
Orbit: 574 x 665 km, 97.6° (Epoch: 24 January)

Event Time Altitude Azimuth Distance (km) Brightness Sun altitude
Rises 04:27:43 0° 19° (NNE) 3,005 ? -34.5°
Reaches altitude 10° 04:30:03 10° 26° (NNE) 2,093 ? -34.1°
Enters shadow 04:30:14 11° 27° (NNE) 2,022 ? -34.0°
